Location: Oklahoma City
(35.4680°N, 97.5160°W)
Time: 15:33:45
(UTC-06:00)

ISS - Visible Passes

Search period start: 30 January 2015 00:00
Search period end: 09 February 2015 00:00
Orbit: 400 x 408 km, 51.6° (Epoch: 30 January)

Date Brightness Start Highest point End Pass type
(mag) Time Alt. Az. Time Alt. Az. Time Alt. Az.
30 Jan -0.2 05:15:43 12° SE 05:15:43 12° SE 05:15:58 10° SE visible
01 Feb -0.3 20:02:33 10° SSW 20:02:41 11° SSW 20:02:41 11° SSW visible
02 Feb -1.6 19:10:59 10° S 19:13:08 19° SE 19:13:08 19° SE visible
03 Feb -1.9 19:54:01 10° SW 19:56:10 37° WSW 19:56:10 37° WSW visible
04 Feb -3.2 19:01:40 10° SSW 19:04:51 55° SE 19:06:22 27° ENE visible
05 Feb -1.6 19:46:04 10° W 19:48:54 27° NW 19:49:09 26° NNW visible
06 Feb -2.6 18:53:07 10° WSW 18:56:18 51° NW 18:59:07 13° NE visible
07 Feb -0.8 19:38:41 10° WNW 19:40:35 14° NNW 19:41:38 13° N visible
08 Feb -1.3 18:45:07 10° W 18:47:47 22° NNW 18:50:26 10° NNE visible
